Tracking 29892 objects as of 21-Nov-2024
HD Live streaming from Space Station
objects crossing your sky now

DMSP 5D-2 F11 DEB

Track DMSP 5D-2 F11 DEB now!
10-day predictions


NORAD ID: 29070
Int'l Code: 1991-082BR
Perigee: 700.5 km
Apogee: 711.4 km
Inclination: 98.6 °
Period: 98.7 minutes
Semi major axis: 7076 km
RCS: 0.0089 m2 (small)
Launch date: November 28, 1991
Source: United States (US)
Launch site: AIR FORCE WESTERN TEST RANGE (AFWTR)

Note: This is SATELLITE DEBRIS
Your satellite tracking list
Your tracking list is empty




NASA's NSSDC Master Catalog

Two Line Element Set (TLE):
1 29070U 91082BR  24321.16943269  .00037586  00000-0  80983-2 0  9999
2 29070  98.6012  42.7167 0007670  51.1422 309.0459 14.58258262 47709
Source of the keplerian elements: AFSPC